time, Switch, Flow(0), Analog(2)
yyyy/mm/dd HH:MM:SS.fff, True=FILTERED|False=TOTAL, L/min, V
2023/07/04 03:00:00.717, True, 4.451, 0.127489
2023/07/04 03:00:01.221, True, 4.643, 0.129854
2023/07/04 03:00:01.725, True, 4.973, 0.128405
2023/07/04 03:00:02.221, True, 4.718, 0.129549
2023/07/04 03:00:02.725, True, 4.311, 0.126802
2023/07/04 03:00:03.229, True, 4.642, 0.128634
2023/07/04 03:00:03.725, True, 3.707, 0.129397
2023/07/04 03:00:04.229, True, 2.653, 0.129015
2023/07/04 03:00:04.733, True, 1.658, 0.125811
2023/07/04 03:00:05.229, True, 1.012, 0.128939
2023/07/04 03:00:05.732, True, 0.993, 0.128099
2023/07/04 03:00:06.237, True, 1.326, 0.128176
2023/07/04 03:00:06.733, True, 1.012, 0.128328
2023/07/04 03:00:07.237, True, 1.327, 0.125582
2023/07/04 03:00:07.741, True, 0.994, 0.128939
2023/07/04 03:00:08.237, True, 1.011, 0.128710
2023/07/04 03:00:08.741, True, 0.995, 0.126116
2023/07/04 03:00:09.236, True, 1.011, 0.128252
2023/07/04 03:00:09.741, True, 0.995, 0.128328
2023/07/04 03:00:10.244, True, 0.995, 0.127108
2023/07/04 03:00:10.740, True, 1.011, 0.126040
2023/07/04 03:00:11.244, True, 1.326, 0.126421
2023/07/04 03:00:11.748, True, 0.995, 0.126497
2023/07/04 03:00:12.244, True, 1.011, 0.127413
2023/07/04 03:00:12.748, True, 0.994, 0.128557
2023/07/04 03:00:13.253, True, 0.995, 0.129091
2023/07/04 03:00:13.748, True, 1.011, 0.130083
2023/07/04 03:00:14.252, True, 0.994, 0.126650
2023/07/04 03:00:14.757, True, 1.327, 0.124437
2023/07/04 03:00:15.253, True, 1.011, 0.129625
2023/07/04 03:00:15.756, True, 0.994, 0.127108
2023/07/04 03:00:16.260, True, 0.996, 0.127413
2023/07/04 03:00:16.756, True, 1.011, 0.128252
2023/07/04 03:00:17.261, True, 1.325, 0.126650
2023/07/04 03:00:17.765, True, 0.996, 0.125353
2023/07/04 03:00:18.261, True, 1.011, 0.128862
2023/07/04 03:00:18.765, True, 0.995, 0.128939
2023/07/04 03:00:19.269, True, 1.327, 0.128481
2023/07/04 03:00:19.765, True, 1.011, 0.126879
2023/07/04 03:00:20.269, True, 0.995, 0.126955
2023/07/04 03:00:20.773, True, 0.995, 0.126650
2023/07/04 03:00:21.269, True, 1.348, 0.128557
2023/07/04 03:00:21.773, True, 0.994, 0.126726
2023/07/04 03:00:22.277, True, 0.993, 0.126726
2023/07/04 03:00:22.781, True, 0.996, 0.129549
2023/07/04 03:00:23.277, True, 1.346, 0.127794
2023/07/04 03:00:23.781, True, 0.995, 0.130465
2023/07/04 03:00:24.285, True, 1.326, 0.129625
2023/07/04 03:00:24.781, True, 1.011, 0.127489
2023/07/04 03:00:25.285, True, 0.995, 0.128023
2023/07/04 03:00:25.789, True, 0.996, 0.125658
2023/07/04 03:00:26.293, True, 0.994, 0.127413
2023/07/04 03:00:26.788, True, 1.348, 0.128939
2023/07/04 03:00:27.293, True, 0.995, 0.127871
2023/07/04 03:00:27.797, True, 0.996, 0.127871
2023/07/04 03:00:28.293, True, 1.010, 0.126268
2023/07/04 03:00:28.797, True, 0.994, 0.127565
2023/07/04 03:00:29.301, True, 0.995, 0.126421
2023/07/04 03:00:29.797, True, 1.347, 0.129320
2023/07/04 03:00:30.301, True, 0.995, 0.126345
2023/07/04 03:00:30.805, True, 0.995, 0.125734
2023/07/04 03:00:31.301, True, 1.011, 0.127260
2023/07/04 03:00:31.805, True, 1.326, 0.128557
2023/07/04 03:00:32.309, True, 0.995, 0.126345
2023/07/04 03:00:32.805, True, 1.011, 0.128328
2023/07/04 03:00:33.309, True, 0.995, 0.125429
2023/07/04 03:00:33.813, True, 1.326, 0.128328
2023/07/04 03:00:34.317, True, 0.995, 0.127794
2023/07/04 03:00:34.813, True, 1.011, 0.125734
2023/07/04 03:00:35.316, True, 1.327, 0.126345
2023/07/04 03:00:35.820, True, 0.994, 0.129778
2023/07/04 03:00:36.317, True, 1.011, 0.128557
2023/07/04 03:00:36.820, True, 0.995, 0.127947
2023/07/04 03:00:37.325, True, 0.995, 0.128099
2023/07/04 03:00:37.821, True, 1.351, 0.128405
2023/07/04 03:00:38.325, True, 0.993, 0.127489
2023/07/04 03:00:38.829, True, 0.995, 0.127108
2023/07/04 03:00:39.333, True, 0.995, 0.127871
2023/07/04 03:00:39.829, True, 1.011, 0.128328
2023/07/04 03:00:40.333, True, 0.995, 0.126879
2023/07/04 03:00:40.829, True, 1.011, 0.128786
2023/07/04 03:00:41.332, True, 1.326, 0.128710
2023/07/04 03:00:41.837, True, 0.995, 0.130694
2023/07/04 03:00:42.333, True, 1.011, 0.126192
2023/07/04 03:00:42.837, True, 0.995, 0.127871
2023/07/04 03:00:43.333, True, 1.011, 0.131685
2023/07/04 03:00:43.837, True, 0.995, 0.128405
2023/07/04 03:00:44.341, True, 0.995, 0.127794
2023/07/04 03:00:44.837, True, 1.011, 0.129168
2023/07/04 03:00:45.341, True, 1.327, 0.127260
2023/07/04 03:00:45.845, True, 0.995, 0.126574
2023/07/04 03:00:46.349, True, 0.995, 0.126040
2023/07/04 03:00:46.845, True, 1.011, 0.127718
2023/07/04 03:00:47.349, True, 0.995, 0.126421
2023/07/04 03:00:47.853, True, 1.327, 0.128328
2023/07/04 03:00:48.349, True, 1.011, 0.126802
2023/07/04 03:00:48.853, True, 0.995, 0.127794
2023/07/04 03:00:49.357, True, 0.995, 0.127794
2023/07/04 03:00:49.853, True, 1.348, 0.127871
2023/07/04 03:00:50.357, True, 0.995, 0.127413
2023/07/04 03:00:50.861, True, 0.996, 0.128557
2023/07/04 03:00:51.357, True, 1.010, 0.128481
2023/07/04 03:00:51.860, True, 0.995, 0.127031
2023/07/04 03:00:52.365, True, 1.326, 0.127184
2023/07/04 03:00:52.861, True, 1.011, 0.128786
2023/07/04 03:00:53.365, True, 0.995, 0.127718
2023/07/04 03:00:53.869, True, 0.995, 0.128023
2023/07/04 03:00:54.365, True, 1.011, 0.127718
2023/07/04 03:00:54.869, True, 0.995, 0.126040
2023/07/04 03:00:55.373, True, 0.995, 0.130083
2023/07/04 03:00:55.869, True, 1.011, 0.126268
2023/07/04 03:00:56.373, True, 1.328, 0.130083
2023/07/04 03:00:56.877, True, 0.993, 0.131151
2023/07/04 03:00:57.372, True, 1.011, 0.127794
2023/07/04 03:00:57.877, True, 0.996, 0.130159
2023/07/04 03:00:58.373, True, 1.010, 0.130083
2023/07/04 03:00:58.877, True, 0.995, 0.127947
2023/07/04 03:00:59.381, True, 1.326, 0.130846
2023/07/04 03:00:59.877, True, 1.011, 0.129168
2023/07/04 03:01:00.381, True, 0.995, 0.129091
2023/07/04 03:01:00.885, True, 0.995, 0.130236
2023/07/04 03:01:01.389, True, 0.995, 0.129931
2023/07/04 03:01:01.885, True, 1.011, 0.131533
2023/07/04 03:01:02.389, True, 1.326, 0.131456
2023/07/04 03:01:02.893, True, 0.995, 0.130694
2023/07/04 03:01:03.389, True, 1.348, 0.130922
2023/07/04 03:01:03.893, True, 0.995, 0.130236
2023/07/04 03:01:04.397, True, 0.995, 0.129091
2023/07/04 03:01:04.893, True, 1.011, 0.130312
2023/07/04 03:01:05.397, True, 0.995, 0.128557
2023/07/04 03:01:05.901, True, 0.994, 0.129168
2023/07/04 03:01:06.396, True, 1.347, 0.131914
2023/07/04 03:01:06.901, True, 0.995, 0.130922
2023/07/04 03:01:07.404, True, 0.996, 0.129549
2023/07/04 03:01:07.901, True, 1.010, 0.130694
2023/07/04 03:01:08.405, True, 0.995, 0.131151
2023/07/04 03:01:08.901, True, 1.348, 0.131838
2023/07/04 03:01:09.405, True, 0.995, 0.132906
2023/07/04 03:01:09.909, True, 0.995, 0.132448
2023/07/04 03:01:10.405, True, 1.011, 0.133288
2023/07/04 03:01:10.908, True, 0.995, 0.133364
2023/07/04 03:01:11.413, True, 1.326, 0.132372
2023/07/04 03:01:11.909, True, 1.012, 0.132296
2023/07/04 03:01:12.413, True, 0.993, 0.134585
2023/07/04 03:01:12.916, True, 0.995, 0.131151
2023/07/04 03:01:13.421, True, 1.326, 0.132677
2023/07/04 03:01:13.917, True, 1.011, 0.131991
2023/07/04 03:01:14.421, True, 0.995, 0.132143
2023/07/04 03:01:14.917, True, 1.011, 0.133516
2023/07/04 03:01:15.421, True, 0.995, 0.130922
2023/07/04 03:01:15.925, True, 1.326, 0.131609
2023/07/04 03:01:16.429, True, 0.997, 0.133822
2023/07/04 03:01:16.925, True, 1.009, 0.131456
2023/07/04 03:01:17.429, True, 1.326, 0.131762
2023/07/04 03:01:17.933, True, 0.995, 0.132525
2023/07/04 03:01:18.429, True, 1.010, 0.133288
2023/07/04 03:01:18.933, True, 0.995, 0.133516
2023/07/04 03:01:19.436, True, 1.328, 0.131075
2023/07/04 03:01:19.940, True, 0.995, 0.131685
2023/07/04 03:01:20.437, True, 1.009, 0.133745
2023/07/04 03:01:20.941, True, 0.996, 0.135500
2023/07/04 03:01:21.444, True, 0.994, 0.134432
2023/07/04 03:01:21.941, True, 1.348, 0.134127
2023/07/04 03:01:22.445, True, 0.995, 0.133364
2023/07/04 03:01:22.949, True, 0.995, 0.134356
2023/07/04 03:01:23.445, True, 1.011, 0.134966
2023/07/04 03:01:23.949, True, 0.995, 0.132219
2023/07/04 03:01:24.453, True, 1.326, 0.131914
2023/07/04 03:01:24.949, True, 1.011, 0.133211
2023/07/04 03:01:25.453, True, 0.996, 0.133211
2023/07/04 03:01:25.957, True, 1.325, 0.132219
2023/07/04 03:01:26.453, True, 1.011, 0.132677
2023/07/04 03:01:26.957, True, 0.995, 0.132906
2023/07/04 03:01:27.461, True, 0.996, 0.133898
2023/07/04 03:01:27.957, True, 1.009, 0.133059
2023/07/04 03:01:28.461, True, 1.326, 0.133059
2023/07/04 03:01:28.965, True, 0.997, 0.130694
2023/07/04 03:01:29.469, True, 0.993, 0.133364
2023/07/04 03:01:29.964, True, 1.012, 0.133288
2023/07/04 03:01:30.469, True, 0.994, 0.134890
2023/07/04 03:01:30.973, True, 1.327, 0.133516
2023/07/04 03:01:31.469, True, 1.011, 0.133288
2023/07/04 03:01:31.973, True, 0.995, 0.133822
2023/07/04 03:01:32.477, True, 0.995, 0.134661
2023/07/04 03:01:32.972, True, 1.348, 0.132906
2023/07/04 03:01:33.477, True, 0.995, 0.135042
2023/07/04 03:01:33.980, True, 0.995, 0.132677
2023/07/04 03:01:34.477, True, 1.013, 0.133898
2023/07/04 03:01:34.981, True, 0.993, 0.134279
2023/07/04 03:01:35.485, True, 0.995, 0.132525
2023/07/04 03:01:35.981, True, 1.348, 0.132906
2023/07/04 03:01:36.485, True, 0.995, 0.134585
2023/07/04 03:01:36.988, True, 0.994, 0.133440
2023/07/04 03:01:37.484, True, 1.011, 0.134585
2023/07/04 03:01:37.989, True, 0.995, 0.132372
2023/07/04 03:01:38.493, True, 1.327, 0.132753
2023/07/04 03:01:38.988, True, 1.013, 0.133135
2023/07/04 03:01:39.492, True, 0.993, 0.131456
2023/07/04 03:01:39.997, True, 1.326, 0.135729
2023/07/04 03:01:40.493, True, 1.011, 0.133059
2023/07/04 03:01:40.996, True, 0.996, 0.134127
2023/07/04 03:01:41.500, True, 0.994, 0.133211
2023/07/04 03:01:41.997, True, 1.011, 0.133211
2023/07/04 03:01:42.501, True, 0.996, 0.134203
2023/07/04 03:01:43.004, True, 0.994, 0.131228
2023/07/04 03:01:43.501, True, 1.011, 0.134432
2023/07/04 03:01:44.005, True, 1.328, 0.133288
2023/07/04 03:01:44.509, True, 0.995, 0.133745
2023/07/04 03:01:45.005, True, 1.009, 0.133211
2023/07/04 03:01:45.508, True, 0.996, 0.133669
2023/07/04 03:01:46.012, True, 0.995, 0.131762
2023/07/04 03:01:46.509, True, 1.347, 0.134127
2023/07/04 03:01:47.013, True, 0.995, 0.130922
2023/07/04 03:01:47.509, True, 1.011, 0.133898
2023/07/04 03:01:48.013, True, 0.995, 0.133745
2023/07/04 03:01:48.517, True, 1.324, 0.133669
2023/07/04 03:01:49.021, True, 0.997, 0.132677
2023/07/04 03:01:49.517, True, 1.011, 0.135195
2023/07/04 03:01:50.020, True, 0.994, 0.135500
2023/07/04 03:01:50.525, True, 1.325, 0.133745
2023/07/04 03:01:51.021, True, 1.012, 0.136263
2023/07/04 03:01:51.525, True, 0.994, 0.134508
2023/07/04 03:01:52.021, True, 1.011, 0.132448
2023/07/04 03:01:52.525, True, 0.994, 0.134051
2023/07/04 03:01:53.029, True, 1.327, 0.133516
2023/07/04 03:01:53.532, True, 0.995, 0.132067
2023/07/04 03:01:54.029, True, 1.011, 0.133974
2023/07/04 03:01:54.533, True, 0.995, 0.131914
2023/07/04 03:01:55.037, True, 1.327, 0.133211
2023/07/04 03:01:55.532, True, 1.011, 0.133211
2023/07/04 03:01:56.036, True, 0.995, 0.134051
2023/07/04 03:01:56.541, True, 0.995, 0.134585
2023/07/04 03:01:57.037, True, 1.011, 0.133593
2023/07/04 03:01:57.541, True, 1.327, 0.134356
2023/07/04 03:01:58.045, True, 0.995, 0.134737
2023/07/04 03:01:58.541, True, 1.011, 0.132067
2023/07/04 03:01:59.045, True, 0.995, 0.135195
2023/07/04 03:01:59.549, True, 0.995, 0.133211
2023/07/04 03:02:00.045, True, 1.350, 0.135119
2023/07/04 03:02:00.549, True, 0.994, 0.134661
2023/07/04 03:02:01.053, True, 0.994, 0.132906
2023/07/04 03:02:01.549, True, 1.011, 0.134508
2023/07/04 03:02:02.052, True, 0.995, 0.133974
2023/07/04 03:02:02.548, True, 1.010, 0.131228
2023/07/04 03:02:03.053, True, 0.996, 0.134356
2023/07/04 03:02:03.557, True, 0.993, 0.133135
2023/07/04 03:02:04.053, True, 1.012, 0.132677
2023/07/04 03:02:04.557, True, 1.325, 0.133669
2023/07/04 03:02:05.061, True, 0.995, 0.133974
2023/07/04 03:02:05.557, True, 1.011, 0.134356
2023/07/04 03:02:06.060, True, 0.995, 0.135958
2023/07/04 03:02:06.565, True, 0.995, 0.133745
2023/07/04 03:02:07.061, True, 1.011, 0.134051
2023/07/04 03:02:07.565, True, 1.327, 0.135729
2023/07/04 03:02:08.069, True, 0.996, 0.133898
2023/07/04 03:02:08.565, True, 1.010, 0.133669
2023/07/04 03:02:09.069, True, 1.326, 0.133440
2023/07/04 03:02:09.573, True, 0.995, 0.133211
2023/07/04 03:02:10.069, True, 1.348, 0.132601
2023/07/04 03:02:10.573, True, 0.995, 0.132906
2023/07/04 03:02:11.077, True, 0.995, 0.132525
2023/07/04 03:02:11.573, True, 1.011, 0.133440
2023/07/04 03:02:12.077, True, 0.996, 0.133288
2023/07/04 03:02:12.581, True, 0.993, 0.133822
2023/07/04 03:02:13.085, True, 1.326, 0.132906
2023/07/04 03:02:13.581, True, 1.011, 0.131762
2023/07/04 03:02:14.084, True, 0.995, 0.133364
2023/07/04 03:02:14.581, True, 1.011, 0.132830
2023/07/04 03:02:15.085, True, 1.326, 0.136416
2023/07/04 03:02:15.589, True, 0.995, 0.131228
2023/07/04 03:02:16.093, True, 0.995, 0.133288
2023/07/04 03:02:16.589, True, 1.010, 0.135195
2023/07/04 03:02:17.093, True, 0.995, 0.133288
2023/07/04 03:02:17.597, True, 1.326, 0.133135
2023/07/04 03:02:18.093, True, 1.011, 0.133822
2023/07/04 03:02:18.597, True, 0.995, 0.133516
2023/07/04 03:02:19.093, True, 1.011, 0.133288
2023/07/04 03:02:19.597, True, 1.326, 0.134051
2023/07/04 03:02:20.101, True, 0.995, 0.132677
2023/07/04 03:02:20.597, True, 1.011, 0.133288
2023/07/04 03:02:21.101, True, 0.995, 0.132067
2023/07/04 03:02:21.605, True, 1.328, 0.133135
2023/07/04 03:02:22.109, True, 0.993, 0.134127
2023/07/04 03:02:22.605, True, 1.011, 0.134737
2023/07/04 03:02:23.109, True, 0.995, 0.132982
2023/07/04 03:02:23.605, True, 1.348, 0.134737
2023/07/04 03:02:24.108, True, 0.995, 0.131762
2023/07/04 03:02:24.613, True, 0.994, 0.132143
2023/07/04 03:02:25.117, True, 0.996, 0.134585
2023/07/04 03:02:25.613, True, 1.346, 0.132525
2023/07/04 03:02:26.117, True, 0.994, 0.133288
2023/07/04 03:02:26.621, True, 0.995, 0.132219
2023/07/04 03:02:27.117, True, 1.011, 0.135119
2023/07/04 03:02:27.620, True, 1.326, 0.132830
2023/07/04 03:02:28.125, True, 0.995, 0.133288
2023/07/04 03:02:28.621, True, 1.011, 0.132982
2023/07/04 03:02:29.124, True, 0.994, 0.132296
2023/07/04 03:02:29.629, True, 1.327, 0.131304
2023/07/04 03:02:30.125, True, 1.011, 0.134279
2023/07/04 03:02:30.628, True, 0.995, 0.136339
2023/07/04 03:02:31.132, True, 0.995, 0.131991
2023/07/04 03:02:31.629, True, 1.011, 0.129625
2023/07/04 03:02:32.132, True, 0.995, 0.134508
2023/07/04 03:02:32.637, True, 1.328, 0.132296
2023/07/04 03:02:33.133, True, 1.011, 0.134127
2023/07/04 03:02:33.636, True, 0.994, 0.132601
2023/07/04 03:02:34.141, True, 0.995, 0.133364
2023/07/04 03:02:34.637, True, 1.011, 0.133059
2023/07/04 03:02:35.140, True, 1.326, 0.133135
2023/07/04 03:02:35.645, True, 0.997, 0.133364
2023/07/04 03:02:36.141, True, 1.009, 0.132601
2023/07/04 03:02:36.645, True, 0.995, 0.133211
2023/07/04 03:02:37.149, True, 0.997, 0.131991
2023/07/04 03:02:37.652, True, 1.326, 0.132372
2023/07/04 03:02:38.149, True, 0.673, 0.133059
2023/07/04 03:02:38.653, True, 0.995, 0.134432
2023/07/04 03:02:39.149, True, 1.348, 0.133669
2023/07/04 03:02:39.652, True, 0.995, 0.132830
2023/07/04 03:02:40.157, True, 0.995, 0.132372
2023/07/04 03:02:40.661, True, 0.995, 0.134890
2023/07/04 03:02:41.157, True, 1.011, 0.135042
2023/07/04 03:02:41.661, True, 0.995, 0.133440
2023/07/04 03:02:42.165, True, 1.327, 0.133135
2023/07/04 03:02:42.661, True, 1.010, 0.133135
2023/07/04 03:02:43.165, True, 0.995, 0.132219
2023/07/04 03:02:43.669, True, 0.994, 0.132601
2023/07/04 03:02:44.165, True, 1.011, 0.133822
2023/07/04 03:02:44.669, True, 0.995, 0.134203
2023/07/04 03:02:45.173, True, 1.326, 0.133822
2023/07/04 03:02:45.669, True, 1.011, 0.132906
2023/07/04 03:02:46.173, True, 0.995, 0.133516
2023/07/04 03:02:46.677, True, 0.996, 0.132753
2023/07/04 03:02:47.173, True, 1.009, 0.130846
2023/07/04 03:02:47.677, True, 1.326, 0.130388
2023/07/04 03:02:48.181, True, 0.995, 0.132830
2023/07/04 03:02:48.677, True, 1.011, 0.134127
2023/07/04 03:02:49.181, True, 0.995, 0.132296
2023/07/04 03:02:49.685, True, 0.995, 0.132982
2023/07/04 03:02:50.181, True, 1.011, 0.133135
2023/07/04 03:02:50.685, True, 0.995, 0.135119
2023/07/04 03:02:51.189, True, 1.326, 0.132906
2023/07/04 03:02:51.685, True, 1.011, 0.132219
2023/07/04 03:02:52.189, True, 0.994, 0.132677
2023/07/04 03:02:52.692, True, 0.995, 0.132601
2023/07/04 03:02:53.189, True, 1.011, 0.133211
2023/07/04 03:02:53.692, True, 0.995, 0.133440
2023/07/04 03:02:54.197, True, 0.995, 0.134737
2023/07/04 03:02:54.693, True, 1.347, 0.132601
2023/07/04 03:02:55.197, True, 0.995, 0.133288
2023/07/04 03:02:55.701, True, 1.328, 0.134890
2023/07/04 03:02:56.205, True, 0.994, 0.132525
2023/07/04 03:02:56.701, True, 1.011, 0.134051
2023/07/04 03:02:57.205, True, 0.995, 0.131838
2023/07/04 03:02:57.701, True, 1.011, 0.131838
2023/07/04 03:02:58.205, True, 0.995, 0.132219
2023/07/04 03:02:58.709, True, 1.326, 0.133822
2023/07/04 03:02:59.205, True, 1.011, 0.131609
2023/07/04 03:02:59.709, True, 0.995, 0.132143
2023/07/04 03:03:00.213, True, 0.995, 0.133364
2023/07/04 03:03:00.709, True, 1.010, 0.133669
2023/07/04 03:03:01.213, True, 0.995, 0.131914
2023/07/04 03:03:01.717, True, 1.326, 0.133593
2023/07/04 03:03:02.213, True, 1.011, 0.131151
2023/07/04 03:03:02.717, True, 0.995, 0.132677
2023/07/04 03:03:03.220, True, 0.995, 0.132372
2023/07/04 03:03:03.717, True, 1.011, 0.132296
2023/07/04 03:03:04.221, True, 0.995, 0.132830
2023/07/04 03:03:04.724, True, 0.995, 0.132296
2023/07/04 03:03:05.220, True, 1.010, 0.135042
2023/07/04 03:03:05.725, True, 1.326, 0.132143
2023/07/04 03:03:06.229, True, 0.995, 0.133135
2023/07/04 03:03:06.724, True, 1.013, 0.132219
2023/07/04 03:03:07.228, True, 0.993, 0.131991
2023/07/04 03:03:07.732, True, 0.995, 0.134432
2023/07/04 03:03:08.228, True, 1.011, 0.130694
2023/07/04 03:03:08.732, True, 0.995, 0.132601
2023/07/04 03:03:09.229, True, 1.350, 0.132372
2023/07/04 03:03:09.732, True, 0.993, 0.131609
2023/07/04 03:03:10.236, True, 0.995, 0.133059
2023/07/04 03:03:10.733, True, 1.011, 0.133364
2023/07/04 03:03:11.237, True, 0.995, 0.132219
2023/07/04 03:03:11.732, True, 1.011, 0.133516
2023/07/04 03:03:12.236, True, 1.326, 0.134203
2023/07/04 03:03:12.741, True, 0.995, 0.134051
2023/07/04 03:03:13.237, True, 1.011, 0.133898
2023/07/04 03:03:13.740, True, 0.996, 0.130465
2023/07/04 03:03:14.244, True, 1.325, 0.131075
2023/07/04 03:03:14.749, True, 0.996, 0.135424
2023/07/04 03:03:15.245, True, 1.010, 0.132219
2023/07/04 03:03:15.749, True, 1.326, 0.133974
2023/07/04 03:03:16.253, True, 0.995, 0.131456
2023/07/04 03:03:16.749, True, 1.012, 0.131304
2023/07/04 03:03:17.253, True, 0.994, 0.133593
2023/07/04 03:03:17.749, True, 1.347, 0.130388
2023/07/04 03:03:18.253, True, 0.996, 0.133440
2023/07/04 03:03:18.756, True, 0.995, 0.132067
2023/07/04 03:03:19.261, True, 0.994, 0.130465
2023/07/04 03:03:19.756, True, 1.012, 0.132906
2023/07/04 03:03:20.261, True, 0.995, 0.133135
2023/07/04 03:03:20.765, True, 0.994, 0.129473
2023/07/04 03:03:21.261, True, 1.010, 0.130999
2023/07/04 03:03:21.765, True, 1.328, 0.131991
2023/07/04 03:03:22.269, True, 0.994, 0.132296
2023/07/04 03:03:22.765, True, 1.012, 0.131838
2023/07/04 03:03:23.269, True, 0.993, 0.131609
2023/07/04 03:03:23.773, True, 0.996, 0.132296
2023/07/04 03:03:24.269, True, 1.011, 0.131533
2023/07/04 03:03:24.773, True, 0.994, 0.131380
2023/07/04 03:03:25.277, True, 1.325, 0.133516
2023/07/04 03:03:25.773, True, 1.011, 0.131991
2023/07/04 03:03:26.277, True, 0.995, 0.134508
2023/07/04 03:03:26.781, True, 0.995, 0.132677
2023/07/04 03:03:27.277, True, 1.013, 0.132067
2023/07/04 03:03:27.781, True, 0.993, 0.133135
2023/07/04 03:03:28.285, True, 0.995, 0.131991
2023/07/04 03:03:28.781, True, 1.011, 0.132677
2023/07/04 03:03:29.285, True, 0.995, 0.131762
2023/07/04 03:03:29.789, True, 1.326, 0.132677
2023/07/04 03:03:30.284, True, 1.011, 0.131838
2023/07/04 03:03:30.789, True, 0.995, 0.133745
2023/07/04 03:03:31.293, True, 0.995, 0.133898
2023/07/04 03:03:31.797, True, 0.995, 0.132677
2023/07/04 03:03:32.293, True, 1.010, 0.131228
2023/07/04 03:03:32.797, True, 0.995, 0.132143
2023/07/04 03:03:33.301, True, 1.326, 0.132219
2023/07/04 03:03:33.797, True, 1.011, 0.131685
2023/07/04 03:03:34.301, True, 0.995, 0.133059
2023/07/04 03:03:34.797, True, 1.011, 0.132906
2023/07/04 03:03:35.301, True, 1.326, 0.132067
2023/07/04 03:03:35.805, True, 0.995, 0.131456
2023/07/04 03:03:36.301, True, 1.012, 0.133516
2023/07/04 03:03:36.805, True, 0.994, 0.131762
2023/07/04 03:03:37.309, True, 0.995, 0.131456
2023/07/04 03:03:37.805, True, 1.348, 0.132219
2023/07/04 03:03:38.309, True, 0.995, 0.129091
2023/07/04 03:03:38.813, True, 0.995, 0.131456
2023/07/04 03:03:39.308, True, 1.011, 0.130465
2023/07/04 03:03:39.813, True, 0.995, 0.133059
2023/07/04 03:03:40.317, True, 0.995, 0.130159
2023/07/04 03:03:40.813, True, 1.012, 0.133822
2023/07/04 03:03:41.317, True, 0.994, 0.132906
2023/07/04 03:03:41.821, True, 0.994, 0.131304
2023/07/04 03:03:42.317, True, 1.011, 0.132219
2023/07/04 03:03:42.821, True, 0.995, 0.131914
2023/07/04 03:03:43.325, True, 1.326, 0.132372
2023/07/04 03:03:43.821, True, 1.011, 0.131228
2023/07/04 03:03:44.325, True, 0.995, 0.131380
2023/07/04 03:03:44.829, True, 0.995, 0.131685
2023/07/04 03:03:45.325, True, 1.013, 0.133364
2023/07/04 03:03:45.829, True, 0.993, 0.132601
2023/07/04 03:03:46.333, True, 0.995, 0.130694
2023/07/04 03:03:46.829, True, 1.011, 0.133822
2023/07/04 03:03:47.333, True, 0.995, 0.132906
2023/07/04 03:03:47.837, True, 1.327, 0.134508
2023/07/04 03:03:48.333, True, 1.011, 0.131991
2023/07/04 03:03:48.837, True, 0.994, 0.132372
2023/07/04 03:03:49.341, True, 1.326, 0.132677
2023/07/04 03:03:49.837, True, 1.011, 0.133440
2023/07/04 03:03:50.341, True, 0.994, 0.132448
2023/07/04 03:03:50.837, True, 1.011, 0.132906
2023/07/04 03:03:51.341, True, 0.995, 0.132677
2023/07/04 03:03:51.845, True, 0.995, 0.130465
2023/07/04 03:03:52.341, True, 1.011, 0.130312
2023/07/04 03:03:52.845, True, 1.328, 0.132143
2023/07/04 03:03:53.349, True, 0.993, 0.132525
2023/07/04 03:03:53.853, True, 0.995, 0.130007
2023/07/04 03:03:54.357, True, 0.996, 0.130465
2023/07/04 03:03:54.853, True, 1.010, 0.132601
2023/07/04 03:03:55.356, True, 0.995, 0.130770
2023/07/04 03:03:55.861, True, 0.995, 0.131151
2023/07/04 03:03:56.357, True, 1.012, 0.130159
2023/07/04 03:03:56.861, True, 0.994, 0.130465
2023/07/04 03:03:57.365, True, 0.996, 0.131151
2023/07/04 03:03:57.861, True, 1.346, 0.131075
2023/07/04 03:03:58.365, True, 0.995, 0.130236
2023/07/04 03:03:58.868, True, 0.996, 0.130922
2023/07/04 03:03:59.365, True, 1.009, 0.133440
2023/07/04 03:03:59.869, True, 0.995, 0.133593
2023/07/04 03:04:00.373, True, 0.995, 0.129549
2023/07/04 03:04:00.869, True, 1.011, 0.131456
2023/07/04 03:04:01.373, True, 1.327, 0.132296
2023/07/04 03:04:01.877, True, 0.995, 0.131228
2023/07/04 03:04:02.381, True, 0.995, 0.131609
2023/07/04 03:04:02.877, True, 1.011, 0.130922
2023/07/04 03:04:03.381, True, 1.327, 0.130694
2023/07/04 03:04:03.885, True, 0.995, 0.131075
2023/07/04 03:04:04.381, True, 1.012, 0.131533
2023/07/04 03:04:04.885, True, 0.993, 0.132448
2023/07/04 03:04:05.389, True, 0.995, 0.131304
2023/07/04 03:04:05.885, True, 1.011, 0.133745
2023/07/04 03:04:06.389, True, 0.995, 0.131533
2023/07/04 03:04:06.893, True, 0.995, 0.132143
2023/07/04 03:04:07.397, True, 0.995, 0.130770
2023/07/04 03:04:07.892, True, 1.011, 0.132753
2023/07/04 03:04:08.397, True, 1.326, 0.130846
2023/07/04 03:04:08.901, True, 0.996, 0.132296
2023/07/04 03:04:09.397, True, 1.009, 0.133822
2023/07/04 03:04:09.901, True, 0.995, 0.129931